Location: Neuvy Saint Sepulchre
(46.5953°N, 1.8122°E)
Time: 07:14:49
(UTC+02:00)

ISS - Pass Details

Date: 12 July 2021
Orbit: 419 x 421 km, 51.6° (Epoch: 03 August)

Event Time Altitude Azimuth Distance (km) Brightness Sun altitude
Exits shadow 02:04:32 14° 277° (W) 1,307 -1.2 -21.4°
Maximum altitude 02:07:14 41° 347° (NNW) 623 -2.5 -21.4°
Drops below altitude 10° 02:10:28 10° 59° (ENE) 1,505 -0.5 -21.4°
Sets 02:12:39 0° 67° (ENE) 2,370 0.4 -21.4°
